Zurück zum Katalog

STARLINK-36101

AktivKommunikationVLEO
NORAD 66867·PAYLOAD·🇺🇸 United States

Gestartet Dec 2, 2025 von Cape Canaveral Space Force Station

Loading…

Nächste Überflüge (nächste 24 Stunden)

TLE

AktuellSource: CelesTrak SupGP

Epoche: Sep 14, 2026, 20:59 UTC

1 66867C 25281V   26257.87479167  .00010579  00000+0  38327-3 0  2576
2 66867  43.0039 355.4109 0001640 277.7330 125.2099 15.27565783    19

Verfolge STARLINK-36101 in Echtzeit mit AllMySat

Download on the App Store